| time (UTC) | temp C | wind direction | speed KPH | gust KPH | rain 1hr cm | rain 24hr cm | rain mn cm | humidity % | barometer mb |
| 20260505224041 | 28 | 91 | 6.4 | 20.9 | 0.00 | 0.00 | 0.00 | 75 | 1011.0 |
| 20260505223041 | 28 | 99 | 11.3 | 17.7 | 0.00 | 0.00 | 0.00 | 76 | 1011.1 |
| 20260505221541 | 28 | 93 | 6.4 | 19.3 | 0.00 | 0.00 | 0.00 | 76 | 1010.8 |
| 20260505221041 | 28 | 124 | 6.4 | 19.3 | 0.00 | 0.00 | 0.00 | 77 | 1010.8 |
| 20260505220541 | 28 | 108 | 12.9 | 20.9 | 0.00 | 0.00 | 0.00 | 77 | 1010.7 |
| 20260505220041 | 28 | 122 | 8.0 | 20.9 | 0.00 | 0.00 | 0.00 | 78 | 1010.9 |
| 20260505215541 | 28 | 98 | 6.4 | 20.9 | 0.00 | 0.00 | 0.00 | 78 | 1010.7 |
| 20260505215041 | 27 | 106 | 8.0 | 17.7 | 0.00 | 0.00 | 0.00 | 78 | 1010.8 |
| 20260505214540 | 27 | 108 | 8.0 | 17.7 | 0.00 | 0.00 | 0.00 | 79 | 1010.4 |
| 20260505214041 | 27 | 134 | 4.8 | 14.5 | 0.00 | 0.00 | 0.00 | 80 | 1010.6 |
| 20260505213041 | 27 | 122 | 11.3 | 16.1 | 0.00 | 0.00 | 0.00 | 81 | 1010.3 |
| 20260505212041 | 27 | 117 | 4.8 | 16.1 | 0.00 | 0.00 | 0.00 | 83 | 1010.3 |
| 20260505211541 | 27 | 102 | 11.3 | 16.1 | 0.00 | 0.00 | 0.00 | 83 | 1010.1 |
| 20260505211041 | 27 | 120 | 8.0 | 9.7 | 0.00 | 0.00 | 0.00 | 83 | 1010.3 |
| 20260505210541 | 27 | 118 | 6.4 | 9.7 | 0.00 | 0.00 | 0.00 | 84 | 1010.3 |
| 20260505210041 | 27 | 131 | 6.4 | 9.7 | 0.00 | 0.00 | 0.00 | 85 | 1010.1 |
| 20260505205541 | 27 | 157 | 1.6 | 9.7 | 0.00 | 0.00 | 0.00 | 86 | 1010.2 |
| 20260505205041 | 27 | 192 | 3.2 | 9.7 | 0.00 | 0.00 | 0.00 | 86 | 1010.0 |
| 20260505204040 | 27 | 152 | 1.6 | 11.3 | 0.00 | 0.00 | 0.00 | 86 | 1010.0 |
| 20260505203542 | 27 | 135 | 6.4 | 17.7 | 0.00 | 0.00 | 0.00 | 86 | 1010.0 |
| 20260505203041 | 27 | 122 | 11.3 | 17.7 | 0.00 | 0.00 | 0.00 | 86 | 1009.8 |
| 20260505202541 | 27 | 139 | 6.4 | 14.5 | 0.00 | 0.00 | 0.00 | 86 | 1009.8 |
| 20260505202041 | 27 | 101 | 6.4 | 16.1 | 0.00 | 0.00 | 0.00 | 87 | 1009.9 |
| 20260505201541 | 27 | 177 | 4.8 | 16.1 | 0.00 | 0.00 | 0.00 | 87 | 1010.0 |
| 20260505201041 | 27 | 137 | 8.0 | 16.1 | 0.00 | 0.00 | 0.00 | 87 | 1009.8 |
| 20260505200540 | 27 | 140 | 4.8 | 16.1 | 0.00 | 0.00 | 0.00 | 87 | 1009.8 |
| 20260505200042 | 27 | 125 | 14.5 | 17.7 | 0.00 | 0.00 | 0.00 | 87 | 1009.9 |
| 20260505195541 | 27 | 148 | 6.4 | 17.7 | 0.00 | 0.00 | 0.00 | 86 | 1009.9 |
| 20260505195041 | 27 | 201 | 3.2 | 22.5 | 0.00 | 0.00 | 0.00 | 87 | 1009.8 |
| 20260505194041 | 27 | 140 | 4.8 | 16.1 | 0.00 | 0.00 | 0.00 | 88 | 1009.7 |
| 20260505193541 | 27 | 134 | 4.8 | 16.1 | 0.00 | 0.00 | 0.00 | 88 | 1009.8 |
| 20260505193041 | 27 | 132 | 4.8 | 14.5 | 0.00 | 0.00 | 0.00 | 89 | 1009.7 |
| 20260505192041 | 26 | 134 | 6.4 | 16.1 | 0.00 | 0.00 | 0.00 | 89 | 1009.4 |
| 20260505191541 | 26 | 154 | 6.4 | 16.1 | 0.00 | 0.00 | 0.00 | 89 | 1009.5 |
| 20260505191041 | 26 | 167 | 4.8 | 14.5 | 0.00 | 0.00 | 0.00 | 88 | 1009.2 |
| 20260505190541 | 26 | 166 | 6.4 | 14.5 | 0.00 | 0.00 | 0.00 | 88 | 1009.5 |
| 20260505190041 | 26 | 120 | 9.7 | 14.5 | 0.00 | 0.00 | 0.00 | 88 | 1009.4 |
| 20260505185541 | 26 | 149 | 6.4 | 16.1 | 0.00 | 0.00 | 0.00 | 88 | 1009.4 |
| 20260505185041 | 26 | 109 | 4.8 | 16.1 | 0.00 | 0.00 | 0.00 | 87 | 1009.5 |
| 20260505184541 | 26 | 180 | 4.8 | 17.7 | 0.00 | 0.00 | 0.00 | 86 | 1009.5 |
| 20260505184041 | 27 | 140 | 8.0 | 17.7 | 0.00 | 0.00 | 0.00 | 85 | 1009.7 |
| 20260505183542 | 27 | 134 | 6.4 | 16.1 | 0.00 | 0.00 | 0.00 | 84 | 1009.6 |
| 20260505183041 | 27 | 137 | 12.9 | 17.7 | 0.00 | 0.00 | 0.00 | 84 | 1009.4 |
| 20260505182541 | 27 | 134 | 11.3 | 17.7 | 0.00 | 0.00 | 0.00 | 84 | 1009.6 |
| 20260505182042 | 27 | 152 | 6.4 | 17.7 | 0.00 | 0.00 | 0.00 | 84 | 1009.6 |
| 20260505181541 | 27 | 146 | 6.4 | 17.7 | 0.00 | 0.00 | 0.00 | 84 | 1009.5 |
| 20260505180541 | 27 | 170 | 8.0 | 17.7 | 0.00 | 0.00 | 0.00 | 84 | 1009.8 |
| 20260505180041 | 27 | 159 | 4.8 | 17.7 | 0.00 | 0.00 | 0.00 | 84 | 1010.0 |
| 20260505175541 | 26 | 189 | 4.8 | 20.9 | 0.00 | 0.00 | 0.00 | 85 | 1009.8 |
| 20260505175041 | 26 | 155 | 14.5 | 20.9 | 0.00 | 0.00 | 0.00 | 86 | 1010.0 |
| 20260505174541 | 26 | 141 | 14.5 | 19.3 | 0.00 | 0.00 | 0.00 | 88 | 1010.1 |
| 20260505174042 | 26 | 176 | 3.2 | 22.5 | 0.00 | 0.00 | 0.00 | 89 | 1010.0 |
| 20260505173542 | 27 | 137 | 6.4 | 22.5 | 0.00 | 0.00 | 0.00 | 88 | 1010.4 |
| 20260505173043 | 27 | 150 | 6.4 | 20.9 | 0.00 | 0.00 | 0.00 | 88 | 1010.3 |
| 20260505172541 | 27 | 164 | 9.7 | 20.9 | 0.00 | 0.00 | 0.00 | 87 | 1010.4 |
| 20260505172041 | 27 | 118 | 12.9 | 20.9 | 0.00 | 0.00 | 0.00 | 86 | 1010.6 |
| 20260505171541 | 27 | 204 | 6.4 | 19.3 | 0.00 | 0.00 | 0.00 | 86 | 1010.6 |
| 20260505171041 | 27 | 135 | 4.8 | 19.3 | 0.00 | 0.00 | 0.00 | 84 | 1010.6 |
| 20260505170541 | 27 | 104 | 6.4 | 17.7 | 0.00 | 0.00 | 0.00 | 84 | 1010.7 |
| 20260505170041 | 27 | 145 | 3.2 | 17.7 | 0.00 | 0.00 | 0.00 | 86 | 1010.5 |
| 20260505165541 | 27 | 120 | 12.9 | 17.7 | 0.00 | 0.00 | 0.00 | 88 | 1010.5 |
| 20260505165041 | 27 | 135 | 12.9 | 20.9 | 0.00 | 0.00 | 0.00 | 89 | 1010.3 |
| 20260505164541 | 27 | 113 | 9.7 | 20.9 | 0.00 | 0.00 | 0.00 | 89 | 1010.7 |
| 20260505164041 | 27 | 161 | 6.4 | 22.5 | 0.00 | 0.00 | 0.00 | 89 | 1010.7 |
| 20260505163541 | 27 | 146 | 4.8 | 24.1 | 0.00 | 0.00 | 0.00 | 89 | 1010.5 |
| 20260505163041 | 27 | 116 | 6.4 | 27.4 | 0.00 | 0.00 | 0.00 | 88 | 1010.6 |
| 20260505162540 | 27 | 168 | 3.2 | 27.4 | 0.00 | 0.00 | 0.00 | 89 | 1010.7 |
| 20260505162041 | 27 | 130 | 14.5 | 24.1 | 0.00 | 0.00 | 0.00 | 88 | 1010.7 |
| 20260505161541 | 27 | 179 | 3.2 | 24.1 | 0.00 | 0.00 | 0.00 | 88 | 1010.8 |
| 20260505161041 | 27 | 155 | 9.7 | 20.9 | 0.00 | 0.00 | 0.00 | 87 | 1010.6 |
| 20260505160541 | 27 | 149 | 11.3 | 20.9 | 0.00 | 0.00 | 0.00 | 87 | 1010.7 |
| 20260505152541 | 28 | 102 | 8.0 | 24.1 | 0.00 | 0.00 | 0.00 | 75 | 1011.0 |
| 20260505152041 | 28 | 113 | 9.7 | 20.9 | 0.00 | 0.00 | 0.00 | 75 | 1011.1 |
| 20260505151541 | 28 | 136 | 12.9 | 24.1 | 0.00 | 0.00 | 0.00 | 75 | 1011.2 |
| 20260505150541 | 28 | 143 | 12.9 | 20.9 | 0.00 | 0.00 | 0.00 | 75 | 1011.2 |
| 20260505125042 | 29 | 149 | 6.4 | 20.9 | 0.00 | 0.00 | 0.00 | 67 | 1010.5 |
| 20260505124041 | 29 | 184 | 3.2 | 19.3 | 0.00 | 0.00 | 0.00 | 68 | 1010.8 |
| 20260505123541 | 29 | 141 | 11.3 | 17.7 | 0.00 | 0.00 | 0.00 | 67 | 1010.8 |
| 20260505123041 | 29 | 125 | 4.8 | 17.7 | 0.00 | 0.00 | 0.00 | 67 | 1010.7 |
| 20260505122541 | 29 | 131 | 9.7 | 17.7 | 0.00 | 0.00 | 0.00 | 67 | 1010.7 |
| 20260505122041 | 29 | 111 | 8.0 | 24.1 | 0.00 | 0.00 | 0.00 | 67 | 1010.7 |
| 20260505121541 | 30 | 135 | 8.0 | 24.1 | 0.00 | 0.00 | 0.00 | 66 | 1010.6 |
| 20260505121042 | 30 | 112 | 9.7 | 17.7 | 0.00 | 0.00 | 0.00 | 66 | 1010.6 |
| 20260505120041 | 29 | 94 | 8.0 | 19.3 | 0.00 | 0.00 | 0.00 | 67 | 1010.3 |
| 20260505115541 | 30 | 142 | 8.0 | 20.9 | 0.00 | 0.00 | 0.00 | 68 | 1010.6 |
| 20260505114541 | 30 | 130 | 3.2 | 24.1 | 0.00 | 0.00 | 0.00 | 69 | 1009.9 |
| 20260505114041 | 30 | 140 | 11.3 | 24.1 | 0.00 | 0.00 | 0.00 | 70 | 1009.9 |
| 20260505113041 | 29 | 94 | 14.5 | 20.9 | 0.00 | 0.00 | 0.00 | 72 | 1009.8 |
| 20260505112541 | 30 | 155 | 3.2 | 19.3 | 0.00 | 0.00 | 0.00 | 72 | 1009.7 |
| 20260505112042 | 30 | 96 | 17.7 | 20.9 | 0.00 | 0.00 | 0.00 | 72 | 1009.5 |
| 20260505111542 | 30 | 112 | 9.7 | 25.7 | 0.00 | 0.00 | 0.00 | 72 | 1009.5 |
| 20260505111041 | 30 | 98 | 9.7 | 25.7 | 0.00 | 0.00 | 0.00 | 71 | 1009.9 |
| 20260505102042 | 30 | 120 | 22.5 | 25.7 | 0.00 | 0.00 | 0.00 | 71 | 1009.4 |
| 20260505101541 | 30 | 115 | 11.3 | 25.7 | 0.00 | 0.00 | 0.00 | 71 | 1009.4 |
| 20260505101040 | 30 | 95 | 17.7 | 29.0 | 0.00 | 0.00 | 0.00 | 70 | 1009.2 |
| 20260505100541 | 30 | 94 | 29.0 | 29.0 | 0.00 | 0.00 | 0.00 | 70 | 1009.1 |
| 20260505100041 | 30 | 100 | 3.2 | 27.4 | 0.00 | 0.00 | 0.00 | 69 | 1009.2 |
| 20260505095541 | 30 | 91 | 9.7 | 27.4 | 0.00 | 0.00 | 0.00 | 70 | 1009.3 |
| 20260505094541 | 31 | 97 | 9.7 | 24.1 | 0.00 | 0.00 | 0.00 | 69 | 1009.0 |
| 20260505094041 | 31 | 87 | 12.9 | 24.1 | 0.00 | 0.00 | 0.00 | 69 | 1009.1 |
| 20260505093541 | 31 | 114 | 6.4 | 20.9 | 0.00 | 0.00 | 0.00 | 68 | 1008.8 |
| 20260505093041 | 31 | 104 | 4.8 | 20.9 | 0.00 | 0.00 | 0.00 | 68 | 1008.8 |
| 20260505092541 | 31 | 114 | 9.7 | 22.5 | 0.00 | 0.00 | 0.00 | 68 | 1008.8 |
| 20260505092041 | 31 | 160 | 8.0 | 24.1 | 0.00 | 0.00 | 0.00 | 68 | 1008.8 |
| 20260505091541 | 31 | 56 | 11.3 | 25.7 | 0.00 | 0.00 | 0.00 | 68 | 1008.5 |
| 20260505090541 | 31 | 175 | 4.8 | 20.9 | 0.00 | 0.00 | 0.00 | 67 | 1008.5 |
| 20260505090042 | 31 | 137 | 4.8 | 22.5 | 0.00 | 0.00 | 0.00 | 67 | 1008.4 |
| 20260505085542 | 31 | 107 | 17.7 | 22.5 | 0.00 | 0.00 | 0.00 | 66 | 1008.5 |
| 20260505085041 | 31 | 129 | 6.4 | 22.5 | 0.00 | 0.00 | 0.00 | 67 | 1008.3 |
| 20260505084540 | 31 | 109 | 11.3 | 20.9 | 0.00 | 0.00 | 0.00 | 66 | 1008.5 |
| 20260505084041 | 32 | 118 | 6.4 | 16.1 | 0.00 | 0.00 | 0.00 | 66 | 1008.5 |
| 20260505083541 | 32 | 126 | 12.9 | 24.1 | 0.00 | 0.00 | 0.00 | 66 | 1008.5 |
| 20260505083041 | 32 | 100 | 8.0 | 24.1 | 0.00 | 0.00 | 0.00 | 65 | 1008.4 |
| 20260505082541 | 32 | 125 | 14.5 | 27.4 | 0.00 | 0.00 | 0.00 | 65 | 1008.5 |
| 20260505082041 | 32 | 136 | 8.0 | 27.4 | 0.00 | 0.00 | 0.00 | 64 | 1008.6 |
| 20260505081041 | 32 | 104 | 22.5 | 30.6 | 0.00 | 0.00 | 0.00 | 64 | 1008.5 |
| 20260505080541 | 32 | 131 | 11.3 | 30.6 | 0.00 | 0.00 | 0.00 | 63 | 1008.3 |
| 20260505080042 | 32 | 88 | 8.0 | 30.6 | 0.00 | 0.00 | 0.00 | 63 | 1008.4 |
| 20260505075541 | 32 | 107 | 6.4 | 30.6 | 0.00 | 0.00 | 0.00 | 63 | 1008.2 |
| 20260505074541 | 33 | 140 | 8.0 | 27.4 | 0.00 | 0.00 | 0.00 | 63 | 1008.4 |
| 20260505074041 | 33 | 99 | 9.7 | 25.7 | 0.00 | 0.00 | 0.00 | 60 | 1008.1 |
| 20260505073541 | 33 | 82 | 6.4 | 27.4 | 0.00 | 0.00 | 0.00 | 59 | 1008.2 |
| 20260505073041 | 33 | 120 | 16.1 | 27.4 | 0.00 | 0.00 | 0.00 | 57 | 1008.2 |
| 20260505072541 | 33 | 85 | 3.2 | 29.0 | 0.00 | 0.00 | 0.00 | 57 | 1008.1 |
| 20260505072041 | 33 | 112 | 8.0 | 29.0 | 0.00 | 0.00 | 0.00 | 59 | 1008.2 |
| 20260505071541 | 33 | 133 | 12.9 | 25.7 | 0.00 | 0.00 | 0.00 | 59 | 1008.3 |
| 20260505071041 | 33 | 80 | 6.4 | 22.5 | 0.00 | 0.00 | 0.00 | 59 | 1008.5 |
| 20260505070542 | 33 | 108 | 8.0 | 24.1 | 0.00 | 0.00 | 0.00 | 60 | 1008.3 |
| 20260505070041 | 33 | 144 | 9.7 | 24.1 | 0.00 | 0.00 | 0.00 | 59 | 1008.3 |
| 20260505065541 | 33 | 83 | 8.0 | 22.5 | 0.00 | 0.00 | 0.00 | 60 | 1008.4 |
| 20260505065041 | 33 | 91 | 17.7 | 22.5 | 0.00 | 0.00 | 0.00 | 60 | 1008.4 |
| 20260505064542 | 33 | 96 | 9.7 | 22.5 | 0.00 | 0.00 | 0.00 | 59 | 1008.5 |
| 20260505064041 | 33 | 104 | 8.0 | 24.1 | 0.00 | 0.00 | 0.00 | 58 | 1008.4 |
| 20260505063541 | 33 | 140 | 11.3 | 27.4 | 0.00 | 0.00 | 0.00 | 60 | 1008.6 |
| 20260505063041 | 32 | 82 | 6.4 | 27.4 | 0.00 | 0.00 | 0.00 | 62 | 1008.6 |
| 20260505062541 | 33 | 84 | 8.0 | 27.4 | 0.00 | 0.00 | 0.00 | 61 | 1008.6 |
| 20260505062041 | 33 | 116 | 11.3 | 27.4 | 0.00 | 0.00 | 0.00 | 61 | 1008.6 |
| 20260505061541 | 33 | 126 | 11.3 | 22.5 | 0.00 | 0.00 | 0.00 | 61 | 1008.7 |
| 20260505060541 | 32 | 133 | 9.7 | 32.2 | 0.00 | 0.00 | 0.00 | 62 | 1008.8 |
| 20260505060041 | 33 | 126 | 17.7 | 30.6 | 0.00 | 0.00 | 0.00 | 61 | 1008.8 |
| 20260505055041 | 33 | 103 | 17.7 | 27.4 | 0.00 | 0.00 | 0.00 | 62 | 1009.0 |
| 20260505054541 | 32 | 102 | 12.9 | 27.4 | 0.00 | 0.00 | 0.00 | 62 | 1009.0 |
| 20260505054041 | 32 | 117 | 17.7 | 33.8 | 0.00 | 0.00 | 0.00 | 62 | 1009.3 |
| 20260505053540 | 32 | 104 | 22.5 | 33.8 | 0.00 | 0.00 | 0.00 | 62 | 1009.2 |
| 20260505053041 | 33 | 115 | 12.9 | 29.0 | 0.00 | 0.00 | 0.00 | 60 | 1009.3 |
| 20260505052541 | 33 | 97 | 12.9 | 25.7 | 0.00 | 0.00 | 0.00 | 61 | 1009.3 |
| 20260505052041 | 33 | 94 | 11.3 | 22.5 | 0.00 | 0.00 | 0.00 | 61 | 1009.3 |
| 20260505051541 | 33 | 98 | 16.1 | 27.4 | 0.00 | 0.00 | 0.00 | 61 | 1009.5 |
| 20260505051041 | 32 | 160 | 9.7 | 29.0 | 0.00 | 0.00 | 0.00 | 62 | 1009.4 |
| 20260505050541 | 32 | 101 | 22.5 | 29.0 | 0.00 | 0.00 | 0.00 | 63 | 1009.4 |
| 20260505041541 | 32 | 133 | 6.4 | 30.6 | 0.00 | 0.00 | 0.00 | 64 | 1010.2 |
| 20260505041041 | 32 | 84 | 17.7 | 30.6 | 0.00 | 0.00 | 0.00 | 64 | 1010.2 |
| 20260505040541 | 32 | 101 | 12.9 | 30.6 | 0.00 | 0.00 | 0.00 | 62 | 1010.6 |
| 20260505035541 | 32 | 118 | 6.4 | 29.0 | 0.00 | 0.00 | 0.00 | 61 | 1010.1 |
| 20260505035041 | 32 | 148 | 6.4 | 29.0 | 0.00 | 0.00 | 0.00 | 62 | 1010.4 |
| 20260505034541 | 32 | 110 | 17.7 | 25.7 | 0.00 | 0.00 | 0.00 | 61 | 1010.4 |
| 20260505034041 | 32 | 70 | 11.3 | 30.6 | 0.00 | 0.00 | 0.00 | 61 | 1010.5 |
| 20260505033541 | 32 | 94 | 12.9 | 30.6 | 0.00 | 0.00 | 0.00 | 61 | 1010.4 |
| 20260505033041 | 32 | 114 | 20.9 | 24.1 | 0.00 | 0.00 | 0.00 | 59 | 1010.6 |
| 20260505032541 | 32 | 120 | 9.7 | 22.5 | 0.00 | 0.00 | 0.00 | 61 | 1010.8 |
| 20260505032041 | 32 | 111 | 6.4 | 24.1 | 0.00 | 0.00 | 0.00 | 62 | 1010.8 |
| 20260505031541 | 32 | 138 | 19.3 | 29.0 | 0.00 | 0.00 | 0.00 | 61 | 1010.8 |
| 20260505031041 | 32 | 97 | 14.5 | 37.0 | 0.00 | 0.00 | 0.00 | 62 | 1010.8 |
| 20260505030541 | 32 | 102 | 6.4 | 37.0 | 0.00 | 0.00 | 0.00 | 63 | 1010.8 |
| 20260505030041 | 32 | 104 | 9.7 | 24.1 | 0.00 | 0.00 | 0.00 | 61 | 1010.8 |
| 20260505025541 | 32 | 101 | 9.7 | 25.7 | 0.00 | 0.00 | 0.00 | 61 | 1010.8 |
| 20260505025041 | 32 | 140 | 8.0 | 29.0 | 0.00 | 0.00 | 0.00 | 63 | 1011.1 |
| 20260505024541 | 32 | 92 | 17.7 | 29.0 | 0.00 | 0.00 | 0.00 | 61 | 1010.9 |
| 20260505024041 | 32 | 64 | 9.7 | 27.4 | 0.00 | 0.00 | 0.00 | 63 | 1010.9 |
| 20260505023041 | 31 | 103 | 11.3 | 25.7 | 0.00 | 0.00 | 0.00 | 66 | 1011.2 |
| 20260505022541 | 31 | 101 | 14.5 | 25.7 | 0.00 | 0.00 | 0.00 | 66 | 1011.1 |
| 20260505021541 | 31 | 151 | 8.0 | 24.1 | 0.00 | 0.00 | 0.00 | 67 | 1011.2 |
| 20260505021041 | 31 | 99 | 16.1 | 27.4 | 0.00 | 0.00 | 0.00 | 66 | 1011.4 |
| 20260505020041 | 31 | 101 | 19.3 | 25.7 | 0.00 | 0.00 | 0.00 | 65 | 1011.4 |
| 20260505015541 | 31 | 87 | 9.7 | 27.4 | 0.00 | 0.00 | 0.00 | 64 | 1011.4 |
| 20260505015041 | 31 | 98 | 9.7 | 29.0 | 0.00 | 0.00 | 0.00 | 64 | 1011.5 |
| 20260505014541 | 31 | 127 | 22.5 | 29.0 | 0.00 | 0.00 | 0.00 | 64 | 1011.5 |
| 20260505014041 | 31 | 101 | 22.5 | 29.0 | 0.00 | 0.00 | 0.00 | 63 | 1011.7 |
| 20260505013041 | 31 | 92 | 14.5 | 20.9 | 0.00 | 0.00 | 0.00 | 66 | 1011.6 |
| 20260505012541 | 31 | 82 | 6.4 | 16.1 | 0.00 | 0.00 | 0.00 | 66 | 1011.7 |
| 20260505012042 | 31 | 104 | 12.9 | 14.5 | 0.00 | 0.00 | 0.00 | 65 | 1011.7 |
| 20260505011542 | 31 | 110 | 4.8 | 14.5 | 0.00 | 0.00 | 0.00 | 67 | 1011.4 |
| 20260505011041 | 31 | 91 | 14.5 | 22.5 | 0.00 | 0.00 | 0.00 | 66 | 1011.6 |
| 20260505010041 | 30 | 128 | 4.8 | 19.3 | 0.00 | 0.00 | 0.00 | 68 | 1011.5 |
| 20260505005541 | 30 | 145 | 4.8 | 19.3 | 0.00 | 0.00 | 0.00 | 68 | 1011.3 |
| 20260505004542 | 30 | 75 | 3.2 | 17.7 | 0.00 | 0.00 | 0.00 | 69 | 1011.4 |
| 20260505004041 | 31 | 108 | 12.9 | 16.1 | 0.00 | 0.00 | 0.00 | 67 | 1011.5 |
| 20260505003541 | 30 | 120 | 9.7 | 16.1 | 0.00 | 0.00 | 0.00 | 69 | 1011.7 |
| 20260505002541 | 30 | 39 | 6.4 | 17.7 | 0.00 | 0.00 | 0.00 | 69 | 1011.7 |
| 20260505001541 | 30 | 96 | 12.9 | 22.5 | 0.00 | 0.00 | 0.00 | 70 | 1011.5 |
| 20260505001041 | 30 | 96 | 16.1 | 22.5 | 0.00 | 0.00 | 0.00 | 70 | 1011.5 |
| 20260505000542 | 30 | 101 | 9.7 | 19.3 | 0.00 | 0.00 | 0.00 | 70 | 1011.6 |
| 20260505000041 | 30 | 96 | 9.7 | 17.7 | 0.00 | 0.00 | 0.00 | 70 | 1011.7 |
| 20260504235042 | 30 | 117 | 8.0 | 19.3 | 0.00 | 0.00 | 0.00 | 70 | 1011.7 |
| 20260504234541 | 30 | 98 | 3.2 | 19.3 | 0.00 | 0.00 | 0.00 | 70 | 1011.7 |
| 20260504234041 | 30 | 97 | 6.4 | 16.1 | 0.00 | 0.00 | 0.00 | 70 | 1011.8 |
| 20260504233041 | 30 | 167 | 4.8 | 16.1 | 0.00 | 0.00 | 0.00 | 71 | 1011.8 |
| 20260504232541 | 30 | 103 | 12.9 | 16.1 | 0.00 | 0.00 | 0.00 | 71 | 1012.0 |
| 20260504232042 | 29 | 89 | 6.4 | 20.9 | 0.00 | 0.00 | 0.00 | 71 | 1011.7 |
| 20260504231541 | 29 | 101 | 19.3 | 20.9 | 0.00 | 0.00 | 0.00 | 71 | 1011.5 |
| 20260504231041 | 29 | 76 | 8.0 | 17.7 | 0.00 | 0.00 | 0.00 | 71 | 1011.6 |
| 20260504230041 | 29 | 111 | 14.5 | 16.1 | 0.00 | 0.00 | 0.00 | 71 | 1011.2 |
| 20260504225041 | 28 | 105 | 3.2 | 14.5 | 0.00 | 0.00 | 0.00 | 72 | 1011.4 |
| 20260504224541 | 28 | 140 | 6.4 | 14.5 | 0.00 | 0.00 | 0.00 | 73 | 1011.3 |